When you browse on this site, cookies collect data to enhance your experience and personalize the content and advertising you see.
Visit our Privacy Policy to learn more. By continuing to use the site, you agree to this use of cookies and data.
EN

Hourly Weather Gojcow

Today, 23 September, Wednesday

Time Temperature Precipitation Wind Pressure Humidity
00:00 +14°C° 0 mm 2 mps 736 mmHg 65%
01:00 +13°C° 0 mm 2 mps 736 mmHg 66%
02:00 +13°C° 0 mm 2 mps 735 mmHg 68%
03:00 +13°C° 0 mm 1 mps 735 mmHg 69%
04:00 +12°C° 0 mm 1 mps 735 mmHg 71%
05:00 +13°C° 0 mm 2 mps 735 mmHg 69%
06:00 +14°C° 0 mm 2 mps 735 mmHg 67%
07:00 +15°C° 0 mm 2 mps 735 mmHg 64%
08:00 +18°C° 0 mm 2 mps 735 mmHg 58%
09:00 +20°C° 0 mm 3 mps 735 mmHg 52%
10:00 +24°C° 0 mm 3 mps 735 mmHg 46%
11:00 +25°C° 0 mm 4 mps 734 mmHg 44%
12:00 +26°C° 0 mm 4 mps 734 mmHg 42%
13:00 +27°C° 0 mm 4 mps 734 mmHg 40%
14:00 +27°C° 0 mm 4 mps 734 mmHg 43%
15:00 +26°C° 0 mm 3 mps 733 mmHg 46%
16:00 +26°C° 0 mm 3 mps 733 mmHg 48%
17:00 +24°C° 0 mm 3 mps 733 mmHg 52%
18:00 +21°C° 0 mm 3 mps 733 mmHg 57%
19:00 +19°C° 0 mm 3 mps 733 mmHg 61%
20:00 +18°C° 0 mm 3 mps 733 mmHg 64%
21:00 +17°C° 0 mm 3 mps 732 mmHg 67%
22:00 +17°C° 0 mm 2 mps 732 mmHg 70%
23:00 +16°C° 0 mm 2 mps 732 mmHg 71%

Tomorrow, 24 September, Thursday

Time Temperature Precipitation Wind Pressure Humidity
00:00 +16°C° 0 mm 2 mps 732 mmHg 72%
01:00 +16°C° 0 mm 2 mps 732 mmHg 73%
02:00 +15°C° 0 mm 2 mps 732 mmHg 73%
03:00 +15°C° 0 mm 2 mps 732 mmHg 74%
04:00 +15°C° 0 mm 2 mps 731 mmHg 74%
05:00 +16°C° 0 mm 2 mps 732 mmHg 72%
06:00 +16°C° 0 mm 2 mps 732 mmHg 71%
07:00 +17°C° 0 mm 2 mps 732 mmHg 69%
08:00 +19°C° 0 mm 2 mps 732 mmHg 64%
09:00 +21°C° 0 mm 2 mps 732 mmHg 58%
10:00 +24°C° 0 mm 3 mps 732 mmHg 53%
11:00 +25°C° 0 mm 3 mps 732 mmHg 51%
12:00 +25°C° 0 mm 3 mps 733 mmHg 48%
13:00 +26°C° 0 mm 3 mps 733 mmHg 46%
14:00 +26°C° 0.2 mm 3 mps 732 mmHg 49%
15:00 +25°C° 0.2 mm 2 mps 732 mmHg 53%
16:00 +25°C° 0.2 mm 2 mps 732 mmHg 57%
17:00 +23°C° 0.3 mm 2 mps 732 mmHg 63%
18:00 +21°C° 0.3 mm 1 mps 732 mmHg 70%
19:00 +19°C° 0.3 mm 1 mps 732 mmHg 76%
20:00 +19°C° 0.6 mm 1 mps 732 mmHg 79%
21:00 +18°C° 0.6 mm 1 mps 732 mmHg 81%
22:00 +16°C° 0.6 mm 0 mps 732 mmHg 83%
23:00 +16°C° 0 mm 1 mps 732 mmHg 85%

Day after tomorrow, 25 September, Friday

Time Temperature Precipitation Wind Pressure Humidity
00:00 +16°C° 0 mm 1 mps 732 mmHg 87%
01:00 +16°C° 0 mm 1 mps 731 mmHg 88%
02:00 +15°C° 0 mm 1 mps 731 mmHg 89%
03:00 +15°C° 0 mm 2 mps 730 mmHg 91%
04:00 +15°C° 0 mm 2 mps 730 mmHg 92%
05:00 +14°C° 0 mm 3 mps 729 mmHg 90%
06:00 +16°C° 0 mm 3 mps 729 mmHg 88%
07:00 +15°C° 0 mm 4 mps 728 mmHg 86%
08:00 +17°C° 0 mm 5 mps 728 mmHg 78%
09:00 +20°C° 0 mm 6 mps 728 mmHg 70%
10:00 +22°C° 0 mm 7 mps 728 mmHg 62%
11:00 +22°C° 0.1 mm 7 mps 727 mmHg 59%
12:00 +23°C° 0.1 mm 7 mps 727 mmHg 56%
13:00 +24°C° 0.1 mm 7 mps 727 mmHg 53%
14:00 +23°C° 0.3 mm 6 mps 726 mmHg 57%
15:00 +21°C° 0.3 mm 6 mps 726 mmHg 62%
16:00 +20°C° 0.3 mm 5 mps 726 mmHg 67%
17:00 +19°C° 0.3 mm 4 mps 726 mmHg 71%
18:00 +19°C° 0.3 mm 4 mps 726 mmHg 76%
19:00 +18°C° 0.3 mm 3 mps 726 mmHg 81%
20:00 +17°C° 0.1 mm 3 mps 726 mmHg 84%
21:00 +17°C° 0.1 mm 2 mps 726 mmHg 87%
22:00 +16°C° 0.1 mm 2 mps 726 mmHg 90%
23:00 +16°C° 0 mm 2 mps 725 mmHg 91%

26 September, Saturday

Time Temperature Precipitation Wind Pressure Humidity
00:00 +15°C° 0 mm 2 mps 725 mmHg 92%
01:00 +15°C° 0 mm 2 mps 725 mmHg 93%
02:00 +15°C° 0.3 mm 2 mps 724 mmHg 94%
03:00 +14°C° 0.3 mm 3 mps 724 mmHg 94%
04:00 +14°C° 0.3 mm 3 mps 723 mmHg 95%
05:00 +14°C° 0 mm 3 mps 723 mmHg 93%
06:00 +16°C° 0 mm 3 mps 722 mmHg 91%
07:00 +16°C° 0 mm 3 mps 722 mmHg 90%
08:00 +17°C° 0.2 mm 3 mps 722 mmHg 88%
09:00 +17°C° 0.2 mm 3 mps 722 mmHg 87%
10:00 +17°C° 0.2 mm 4 mps 722 mmHg 85%
11:00 +17°C° 0.3 mm 4 mps 722 mmHg 86%
12:00 +17°C° 0.3 mm 4 mps 722 mmHg 86%
13:00 +17°C° 0.3 mm 3 mps 722 mmHg 87%
14:00 +17°C° 0.2 mm 3 mps 722 mmHg 87%
15:00 +17°C° 0.2 mm 2 mps 722 mmHg 86%
16:00 +18°C° 0.2 mm 1 mps 722 mmHg 86%
17:00 +17°C° 1.2 mm 2 mps 721 mmHg 89%
18:00 +16°C° 1.2 mm 2 mps 721 mmHg 92%
19:00 +14°C° 1.2 mm 3 mps 721 mmHg 95%
20:00 +14°C° 1.1 mm 4 mps 721 mmHg 94%
21:00 +13°C° 1.1 mm 4 mps 721 mmHg 94%
22:00 +12°C° 1.1 mm 5 mps 721 mmHg 94%
23:00 +12°C° 1.3 mm 5 mps 720 mmHg 93%

27 September, Sunday

Time Temperature Precipitation Wind Pressure Humidity
00:00 +10°C° 1.3 mm 5 mps 720 mmHg 92%
01:00 +9°C° 1.3 mm 5 mps 720 mmHg 92%
02:00 +9°C° 0 mm 5 mps 720 mmHg 91%
03:00 +9°C° 0 mm 5 mps 721 mmHg 90%
04:00 +9°C° 0 mm 6 mps 721 mmHg 89%
05:00 +9°C° 0.1 mm 5 mps 721 mmHg 89%
06:00 +8°C° 0.1 mm 5 mps 722 mmHg 88%
07:00 +8°C° 0.1 mm 5 mps 722 mmHg 88%
08:00 +8°C° 0.1 mm 5 mps 723 mmHg 86%
09:00 +8°C° 0.1 mm 5 mps 723 mmHg 84%
10:00 +8°C° 0.1 mm 6 mps 724 mmHg 83%
11:00 +8°C° 0 mm 6 mps 724 mmHg 82%
12:00 +8°C° 0 mm 6 mps 725 mmHg 81%
13:00 +8°C° 0 mm 6 mps 726 mmHg 81%
14:00 +8°C° 0 mm 5 mps 727 mmHg 78%
15:00 +8°C° 0 mm 5 mps 728 mmHg 76%
16:00 +8°C° 0 mm 5 mps 728 mmHg 73%
17:00 +7°C° 0 mm 4 mps 729 mmHg 75%
18:00 +7°C° 0 mm 3 mps 730 mmHg 78%
19:00 +6°C° 0 mm 2 mps 730 mmHg 80%
20:00 +6°C° 0 mm 2 mps 731 mmHg 82%
21:00 +6°C° 0 mm 2 mps 731 mmHg 83%
22:00 +5°C° 0 mm 2 mps 732 mmHg 85%
23:00 +5°C° 0 mm 2 mps 732 mmHg 85%

28 September, Monday

Time Temperature Precipitation Wind Pressure Humidity
00:00 +5°C° 0 mm 2 mps 732 mmHg 85%
01:00 +5°C° 0 mm 2 mps 732 mmHg 84%
02:00 +5°C° 0 mm 2 mps 732 mmHg 85%
03:00 +5°C° 0 mm 2 mps 732 mmHg 86%
04:00 +4°C° 0 mm 2 mps 732 mmHg 87%
05:00 +5°C° 0 mm 2 mps 733 mmHg 84%
06:00 +5°C° 0 mm 2 mps 733 mmHg 82%
07:00 +6°C° 0 mm 2 mps 733 mmHg 80%
08:00 +8°C° 0 mm 3 mps 733 mmHg 72%
09:00 +9°C° 0 mm 3 mps 733 mmHg 64%
10:00 +11°C° 0 mm 3 mps 733 mmHg 56%
11:00 +12°C° 0 mm 3 mps 733 mmHg 55%
12:00 +12°C° 0 mm 3 mps 733 mmHg 55%
13:00 +13°C° 0 mm 3 mps 732 mmHg 54%
14:00 +12°C° 0 mm 3 mps 732 mmHg 58%
15:00 +12°C° 0 mm 3 mps 732 mmHg 61%
16:00 +13°C° 0 mm 2 mps 732 mmHg 65%
17:00 +12°C° 0 mm 2 mps 732 mmHg 71%
18:00 +10°C° 0 mm 2 mps 732 mmHg 76%
19:00 +9°C° 0 mm 1 mps 732 mmHg 82%
20:00 +9°C° 0 mm 1 mps 732 mmHg 84%
21:00 +8°C° 0 mm 1 mps 732 mmHg 86%
22:00 +8°C° 0 mm 1 mps 732 mmHg 88%
23:00 +8°C° 0 mm 1 mps 732 mmHg 88%
Show more